Location: Kott?ru
(16.6209°N, 80.6208°E)
Time: 11:06:35
(UTC+00:00)

Max Valier Satellite - Pass Details

Date: 14 June 2023
Orbit: 426 x 438 km, 97.1° (Epoch: 01 October)

Event Time Altitude Azimuth Distance (km) Brightness Sun altitude
Exits shadow 15:09:44 - 231° (SW) 1,667 ? -25.4°
Reaches altitude 10° 15:10:00 10° 235° (SW) 1,611 ? -25.4°
Maximum altitude 15:11:34 13° 262° (W) 1,452 ? -25.7°
Drops below altitude 10° 15:13:07 10° 289° (WNW) 1,597 ? -26.0°
Sets 15:16:07 0° 319° (NW) 2,456 ? -26.6°
